• In Moldova, Republic
  • List of Countries
  • For 7 days
  • Water Temperature
  • Satellite Maps
  • Weather Map
  • Weather Widgets
  • user-avatar
    Login

    Hourly Weather Namibe

    Today, 26 July, Wednesday

    Time Temperature Precipitation Wind Pressure Humidity
    00:00 +19°C° 0 mm 3 mps 761 mmHg 78%
    01:00 +19°C° 0 mm 2 mps 761 mmHg 78%
    02:00 +19°C° 0 mm 2 mps 761 mmHg 80%
    03:00 +19°C° 0 mm 2 mps 760 mmHg 81%
    04:00 +19°C° 0 mm 2 mps 760 mmHg 82%
    05:00 +20°C° 0 mm 1 mps 760 mmHg 82%
    06:00 +20°C° 0 mm 1 mps 760 mmHg 82%
    07:00 +20°C° 0 mm 1 mps 760 mmHg 83%
    08:00 +21°C° 0 mm 2 mps 760 mmHg 72%
    09:00 +24°C° 0 mm 2 mps 761 mmHg 62%
    10:00 +27°C° 0 mm 2 mps 761 mmHg 52%
    11:00 +28°C° 0 mm 3 mps 760 mmHg 48%
    12:00 +29°C° 0 mm 3 mps 760 mmHg 44%
    13:00 +30°C° 0 mm 4 mps 759 mmHg 41%
    14:00 +29°C° 0 mm 4 mps 759 mmHg 44%
    15:00 +29°C° 0 mm 4 mps 759 mmHg 47%
    16:00 +28°C° 0 mm 4 mps 758 mmHg 50%
    17:00 +26°C° 0 mm 3 mps 759 mmHg 56%
    18:00 +25°C° 0 mm 2 mps 759 mmHg 62%
    19:00 +23°C° 0 mm 2 mps 759 mmHg 68%
    20:00 +23°C° 0 mm 1 mps 760 mmHg 69%
    21:00 +23°C° 0 mm 1 mps 760 mmHg 69%
    22:00 +23°C° 0 mm 1 mps 761 mmHg 70%
    23:00 +23°C° 0 mm 1 mps 761 mmHg 68%

    Tomorrow, 27 July, Thursday

    Time Temperature Precipitation Wind Pressure Humidity
    00:00 +23°C° 0 mm 1 mps 761 mmHg 67%
    01:00 +23°C° 0 mm 1 mps 761 mmHg 66%
    02:00 +22°C° 0 mm 1 mps 760 mmHg 67%
    03:00 +22°C° 0 mm 1 mps 760 mmHg 68%
    04:00 +21°C° 0 mm 1 mps 759 mmHg 70%
    05:00 +21°C° 0 mm 1 mps 759 mmHg 70%
    06:00 +21°C° 0 mm 1 mps 760 mmHg 71%
    07:00 +21°C° 0 mm 1 mps 760 mmHg 72%
    08:00 +24°C° 0 mm 1 mps 760 mmHg 61%
    09:00 +26°C° 0 mm 1 mps 760 mmHg 50%
    10:00 +29°C° 0 mm 1 mps 761 mmHg 39%
    11:00 +31°C° 0 mm 2 mps 760 mmHg 35%
    12:00 +33°C° 0 mm 3 mps 759 mmHg 31%
    13:00 +35°C° 0 mm 4 mps 759 mmHg 27%
    14:00 +34°C° 0 mm 4 mps 758 mmHg 32%
    15:00 +32°C° 0 mm 4 mps 758 mmHg 37%
    16:00 +30°C° 0 mm 5 mps 757 mmHg 42%
    17:00 +28°C° 0 mm 4 mps 758 mmHg 49%
    18:00 +26°C° 0 mm 3 mps 759 mmHg 55%
    19:00 +24°C° 0 mm 2 mps 759 mmHg 62%
    20:00 +24°C° 0 mm 2 mps 760 mmHg 63%
    21:00 +24°C° 0 mm 2 mps 760 mmHg 65%
    22:00 +23°C° 0 mm 1 mps 761 mmHg 66%
    23:00 +23°C° 0 mm 2 mps 761 mmHg 65%

    Day after tomorrow, 28 July, Friday

    Time Temperature Precipitation Wind Pressure Humidity
    00:00 +23°C° 0 mm 2 mps 760 mmHg 64%
    01:00 +23°C° 0 mm 2 mps 760 mmHg 63%
    02:00 +23°C° 0 mm 2 mps 760 mmHg 63%
    03:00 +21°C° 0 mm 3 mps 759 mmHg 63%
    04:00 +21°C° 0 mm 3 mps 759 mmHg 63%
    05:00 +21°C° 0 mm 3 mps 759 mmHg 62%
    06:00 +21°C° 0 mm 3 mps 759 mmHg 62%
    07:00 +21°C° 0 mm 3 mps 760 mmHg 62%
    08:00 +25°C° 0 mm 3 mps 760 mmHg 50%
    09:00 +29°C° 0 mm 4 mps 760 mmHg 38%
    10:00 +33°C° 0 mm 4 mps 760 mmHg 26%
    11:00 +35°C° 0 mm 5 mps 759 mmHg 23%
    12:00 +36°C° 0 mm 5 mps 759 mmHg 20%
    13:00 +39°C° 0 mm 6 mps 758 mmHg 17%
    14:00 +36°C° 0 mm 6 mps 758 mmHg 23%
    15:00 +34°C° 0 mm 6 mps 757 mmHg 29%
    16:00 +32°C° 0 mm 6 mps 757 mmHg 35%
    17:00 +29°C° 0 mm 5 mps 757 mmHg 40%
    18:00 +27°C° 0 mm 4 mps 758 mmHg 45%
    19:00 +25°C° 0 mm 3 mps 758 mmHg 50%
    20:00 +25°C° 0 mm 3 mps 759 mmHg 50%
    21:00 +25°C° 0 mm 2 mps 760 mmHg 50%
    22:00 +25°C° 0 mm 2 mps 760 mmHg 50%
    23:00 +24°C° 0 mm 2 mps 760 mmHg 48%

    29 July, Saturday

    Time Temperature Precipitation Wind Pressure Humidity
    00:00 +24°C° 0 mm 3 mps 759 mmHg 47%
    01:00 +24°C° 0 mm 3 mps 759 mmHg 45%
    02:00 +24°C° 0 mm 3 mps 759 mmHg 44%
    03:00 +25°C° 0 mm 3 mps 759 mmHg 43%
    04:00 +25°C° 0 mm 3 mps 758 mmHg 41%
    05:00 +25°C° 0 mm 3 mps 759 mmHg 36%
    06:00 +25°C° 0 mm 3 mps 759 mmHg 32%
    07:00 +25°C° 0 mm 3 mps 759 mmHg 27%
    08:00 +28°C° 0 mm 3 mps 759 mmHg 23%
    09:00 +31°C° 0 mm 3 mps 760 mmHg 19%
    10:00 +35°C° 0 mm 3 mps 760 mmHg 15%
    11:00 +36°C° 0 mm 4 mps 759 mmHg 16%
    12:00 +37°C° 0 mm 4 mps 758 mmHg 17%
    13:00 +38°C° 0 mm 4 mps 758 mmHg 18%
    14:00 +36°C° 0 mm 5 mps 758 mmHg 24%
    15:00 +34°C° 0 mm 5 mps 757 mmHg 29%
    16:00 +33°C° 0 mm 6 mps 757 mmHg 35%
    17:00 +29°C° 0 mm 4 mps 758 mmHg 44%
    18:00 +27°C° 0 mm 3 mps 758 mmHg 53%
    19:00 +25°C° 0 mm 2 mps 759 mmHg 61%
    20:00 +25°C° 0 mm 2 mps 760 mmHg 62%
    21:00 +25°C° 0 mm 2 mps 760 mmHg 63%
    22:00 +24°C° 0 mm 1 mps 761 mmHg 64%
    23:00 +24°C° 0 mm 1 mps 760 mmHg 63%

    30 July, Sunday

    Time Temperature Precipitation Wind Pressure Humidity
    00:00 +24°C° 0 mm 1 mps 760 mmHg 62%
    01:00 +22°C° 0 mm 0 mps 760 mmHg 62%
    02:00 +21°C° 0 mm 0 mps 759 mmHg 61%
    03:00 +21°C° 0 mm 0 mps 759 mmHg 61%
    04:00 +21°C° 0 mm 0 mps 759 mmHg 61%
    05:00 +21°C° 0 mm 0 mps 759 mmHg 57%
    06:00 +23°C° 0 mm 1 mps 760 mmHg 53%
    07:00 +23°C° 0 mm 1 mps 760 mmHg 49%
    08:00 +26°C° 0 mm 1 mps 760 mmHg 41%
    09:00 +28°C° 0 mm 2 mps 760 mmHg 33%
    10:00 +31°C° 0 mm 2 mps 760 mmHg 26%
    11:00 +33°C° 0 mm 3 mps 759 mmHg 26%
    12:00 +34°C° 0 mm 4 mps 759 mmHg 26%
    13:00 +36°C° 0 mm 4 mps 758 mmHg 26%
    14:00 +34°C° 0 mm 5 mps 758 mmHg 32%
    15:00 +33°C° 0 mm 5 mps 757 mmHg 39%
    16:00 +32°C° 0 mm 5 mps 757 mmHg 45%
    17:00 +29°C° 0 mm 4 mps 757 mmHg 54%
    18:00 +26°C° 0 mm 3 mps 758 mmHg 64%
    19:00 +24°C° 0 mm 2 mps 759 mmHg 73%
    20:00 +24°C° 0 mm 2 mps 759 mmHg 75%
    21:00 +23°C° 0 mm 1 mps 760 mmHg 76%
    22:00 +23°C° 0 mm 1 mps 760 mmHg 78%
    23:00 +23°C° 0 mm 1 mps 760 mmHg 78%

    31 July, Monday

    Time Temperature Precipitation Wind Pressure Humidity
    00:00 +23°C° 0 mm 1 mps 760 mmHg 77%
    01:00 +21°C° 0 mm 0 mps 759 mmHg 77%
    02:00 +20°C° 0 mm 0 mps 759 mmHg 78%
    03:00 +20°C° 0 mm 0 mps 759 mmHg 80%
    04:00 +19°C° 0 mm 0 mps 759 mmHg 81%
    05:00 +19°C° 0 mm 0 mps 759 mmHg 81%
    06:00 +19°C° 0 mm 0 mps 759 mmHg 81%
    07:00 +21°C° 0 mm 1 mps 760 mmHg 81%
    08:00 +24°C° 0 mm 1 mps 760 mmHg 70%
    09:00 +26°C° 0 mm 1 mps 760 mmHg 59%
    10:00 +28°C° 0 mm 2 mps 760 mmHg 47%
    11:00 +29°C° 0 mm 3 mps 760 mmHg 44%
    12:00 +31°C° 0 mm 3 mps 759 mmHg 40%
    13:00 +33°C° 0 mm 4 mps 758 mmHg 37%
    14:00 +32°C° 0 mm 4 mps 758 mmHg 41%
    15:00 +30°C° 0 mm 4 mps 758 mmHg 46%
    16:00 +29°C° 0 mm 4 mps 758 mmHg 50%
    17:00 +28°C° 0 mm 4 mps 758 mmHg 57%
    18:00 +26°C° 0 mm 3 mps 759 mmHg 63%
    19:00 +24°C° 0 mm 2 mps 760 mmHg 69%
    20:00 +24°C° 0 mm 1 mps 760 mmHg 70%
    21:00 +24°C° 0 mm 1 mps 760 mmHg 71%
    22:00 +23°C° 0 mm 1 mps 761 mmHg 71%
    23:00 +23°C° 0 mm 1 mps 760 mmHg 71%
    Show more